Torna al catalogo

DELTA 1 DEB

AttivoSSO
NORAD 21330·DEBRIS·🇺🇸 United States

Lanciato Jun 12, 1975 da Vandenberg Space Force Base

Loading…

Prossimi Passaggi (prossime 24 ore)

TLE

AggiornatoSource: Space-Track

Epoca: Sep 14, 2026, 11:17 UTC

1 21330U 75052AY  26257.47049253  .00000593  00000-0  98042-3 0  9997
2 21330  99.9512 145.8177 0306593 118.9444  53.7240 13.33983035717189

Traccia DELTA 1 DEB in tempo reale con AllMySat

Download on the App Store